DW6386 Weather Reports


time (UTC)temp
F
wind
direction
speed
knots
gust
knots
rain 1hr
in
rain 24hr
in
rain mn
in
humidity
%
barometer
mb
20260904010049 81 210 0.0 0.0 0.00 0.00 0.00 81 1013.6
20260904004547 82 210 0.0 0.0 0.00 0.00 0.00 78 1013.3
20260904003047 83 210 0.0 0.0 0.00 0.00 0.00 77 1013.2
20260904001545 84 210 0.0 0.0 0.00 0.00 0.00 74 1013.0
20260904000045 85 210 0.0 0.0 0.00 0.00 0.00 71 1013.0
20260903234545 87 214 0.0 0.0 0.00 0.00 0.00 70 1012.9
20260903233044 88 214 0.0 0.0 0.00 0.00 0.00 68 1012.8
20260903231547 89 214 0.0 0.0 0.00 0.00 0.00 63 1012.8
20260903230044 90 214 0.0 0.0 0.00 0.00 0.00 61 1012.7
20260903224543 91 221 0.0 0.0 0.00 0.00 0.00 58 1012.7
20260903223042 92 229 0.0 1.7 0.00 0.00 0.00 57 1012.8
20260903221542 92 230 0.0 3.5 0.00 0.00 0.00 55 1012.6
20260903220045 93 222 0.9 2.6 0.00 0.00 0.00 55 1012.7
20260903214540 93 240 0.0 2.6 0.00 0.00 0.00 52 1012.7
20260903213040 94 176 0.0 0.9 0.00 0.00 0.00 52 1012.7
20260903211546 94 245 0.0 3.5 0.00 0.00 0.00 52 1012.9
20260903210051 95 229 0.0 2.6 0.00 0.00 0.00 51 1013.0
20260903204534 96 326 0.0 2.6 0.00 0.00 0.00 50 1013.1
20260903203034 96 217 0.0 7.0 0.00 0.00 0.00 49 1013.2
20260903201533 96 228 0.0 4.3 0.00 0.00 0.00 49 1013.4
20260903200029 96 139 0.0 3.5 0.00 0.00 0.00 47 1013.7
20260903194534 96 255 0.9 6.1 0.00 0.00 0.00 50 1013.8
20260903193028 96 290 0.0 4.3 0.00 0.00 0.00 53 1014.0
20260903191530 96 212 0.0 5.2 0.00 0.00 0.00 51 1014.1
20260903190020 96 328 0.9 5.2 0.00 0.00 0.00 53 1014.3
20260903184519 96 160 0.0 5.2 0.00 0.00 0.00 54 1014.4
20260903183014 95 278 0.0 3.5 0.00 0.00 0.00 57 1014.6
20260903181512 95 253 0.0 4.3 0.00 0.00 0.00 59 1014.9
20260903180019 95 244 0.0 1.7 0.00 0.00 0.00 57 1015.0
20260903174514 94 229 0.0 5.2 0.00 0.00 0.00 59 1015.2
20260903173006 94 349 0.9 4.3 0.00 0.00 0.00 60 1015.4
20260903171505 94 228 1.7 3.5 0.00 0.00 0.00 58 1015.6
20260903170002 93 227 1.7 3.5 0.00 0.00 0.00 62 1015.8
20260903164559 92 297 0.9 3.5 0.00 0.00 0.00 62 1016.0
20260903163057 91 269 0.0 3.5 0.00 0.00 0.00 62 1016.1
20260903161556 91 259 0.0 1.7 0.00 0.00 0.00 67 1016.2
20260903160052 90 186 0.0 1.7 0.00 0.00 0.00 68 1016.4
20260903154553 89 280 1.7 5.2 0.00 0.00 0.00 68 1016.5
20260903153049 89 269 0.9 3.5 0.00 0.00 0.00 70 1016.5
20260903151558 87 287 0.0 3.5 0.00 0.00 0.00 74 1016.4
20260903150048 87 201 0.0 1.7 0.00 0.00 0.00 72 1016.5
20260903144539 85 269 0.9 3.5 0.00 0.00 0.00 75 1016.5
20260903143039 85 302 0.0 2.6 0.00 0.00 0.00 74 1016.5
20260903141540 85 254 0.0 1.7 0.00 0.00 0.00 76 1016.5
20260903140027 84 153 0.0 0.9 0.00 0.00 0.00 78 1016.5
20260903134526 84 274 0.0 2.6 0.00 0.00 0.00 80 1016.6
20260903133022 83 224 0.0 1.7 0.00 0.00 0.00 81 1016.6
20260903131517 81 177 0.0 0.0 0.00 0.00 0.00 87 1016.7
20260903130017 80 186 0.0 0.0 0.00 0.00 0.00 94 1016.7
20260903124512 77 186 0.0 0.0 0.00 0.00 0.00 97 1016.7
20260903123007 75 186 0.0 0.0 0.00 0.00 0.00 98 1016.7
20260903121507 74 186 0.0 0.0 0.00 0.00 0.00 99 1016.6
20260903120004 71 186 0.0 0.0 0.00 0.00 0.00 98 1016.4
20260903114502 71 186 0.0 0.0 0.00 0.00 0.00 98 1016.3
20260903113002 71 186 0.0 0.0 0.00 0.00 0.00 98 1016.2
20260903111558 71 186 0.0 0.0 0.00 0.00 0.00 98 1016.0
20260903110059 71 186 0.0 0.0 0.00 0.00 0.00 98 1015.8
20260903104554 71 186 0.0 0.0 0.00 0.00 0.00 98 1015.6
20260903103054 71 186 0.0 0.0 0.00 0.00 0.00 98 1015.5
20260903101559 71 186 0.0 0.0 0.00 0.00 0.00 98 1015.4
20260903100053 71 186 0.0 0.0 0.00 0.00 0.00 98 1015.4
20260903094631 71 186 0.0 0.0 0.00 0.00 0.00 98 1015.4
20260903093051 71 186 0.0 0.0 0.00 0.00 0.00 98 1015.3
20260903091548 72 186 0.0 0.0 0.00 0.00 0.00 98 1015.5
20260903090049 72 186 0.0 0.0 0.00 0.00 0.00 97 1015.5
20260903084546 72 186 0.0 0.0 0.00 0.00 0.00 98 1015.5
20260903083045 72 186 0.0 0.0 0.00 0.00 0.00 97 1015.4
20260903081544 72 186 0.0 0.0 0.00 0.00 0.00 97 1015.4
20260903080056 72 186 0.0 0.0 0.00 0.00 0.00 97 1015.3
20260903074544 72 190 0.0 0.0 0.00 0.00 0.00 97 1015.2
20260903073048 72 190 0.0 0.0 0.00 0.00 0.00 97 1015.2
20260903071640 72 190 0.0 0.0 0.00 0.00 0.00 97 1015.1
20260903070039 72 190 0.0 0.0 0.00 0.00 0.00 96 1014.9
20260903064537 73 190 0.0 0.0 0.00 0.00 0.00 96 1015.1
20260903063035 73 190 0.0 0.0 0.00 0.00 0.00 96 1015.2
20260903061533 73 190 0.0 0.0 0.00 0.00 0.00 96 1015.2
20260903060034 73 190 0.0 0.0 0.00 0.00 0.00 95 1015.3
20260903054530 74 190 0.0 0.0 0.00 0.00 0.00 95 1015.4
20260903053029 74 190 0.0 0.0 0.00 0.00 0.00 95 1015.4
20260903051527 74 190 0.0 0.0 0.00 0.00 0.00 94 1015.4
20260903050027 74 190 0.0 0.0 0.00 0.00 0.00 94 1015.4
20260903044533 74 190 0.0 0.0 0.00 0.00 0.00 94 1015.3
20260903043026 74 190 0.0 0.0 0.00 0.00 0.00 93 1015.3
20260903041522 75 190 0.0 0.0 0.00 0.00 0.00 93 1015.4
20260903040020 75 190 0.0 0.0 0.00 0.00 0.00 92 1015.4
20260903034520 75 190 0.0 0.0 0.00 0.00 0.00 92 1015.3
20260903033019 76 190 0.0 0.0 0.00 0.00 0.00 91 1015.4
20260903031518 76 190 0.0 0.0 0.00 0.00 0.00 91 1015.3
20260903030018 76 190 0.0 0.0 0.00 0.00 0.00 90 1015.3
20260903024518 77 190 0.0 0.0 0.00 0.00 0.00 89 1015.4
20260903023017 77 190 0.0 0.0 0.00 0.00 0.00 88 1015.3
20260903021518 77 211 0.0 0.0 0.00 0.00 0.00 87 1015.3
20260903020016 78 211 0.0 0.0 0.00 0.00 0.00 87 1015.2
20260903014515 78 211 0.0 0.0 0.00 0.00 0.00 86 1015.2
20260903013015 79 211 0.0 0.0 0.00 0.00 0.00 84 1015.2
20260903011515 79 211 0.0 0.0 0.00 0.00 0.00 83 1014.9